Bookmark and Share
Track history (hours):
 

M/T Filos

Last reported at 2014-Apr-20 05:09 UTC. Time now 2014-Apr-24 06:24 UTC.
Position N 50°09' W 001°56'.

Length 180 m; draft 7.4 m.

Type: Tanker. MMSI: 224561000.

NotesDate/timePositionNaut miles runAvg speedWind from/ knotsBaromVisibWave heightAir tempDewpointWater temp
2014-Apr-20 05:09N 50°09' W 001°56'914.6
2014-Apr-20 04:33N 50°11' W 001°43'1414.2
2014-Apr-20 03:33N 50°15' W 001°21'1313.0
2014-Apr-20 02:33N 50°18' W 001°02'1110.8
2014-Apr-20 01:33N 50°21' W 000°45'10 9.4
2014-Apr-20 00:30N 50°24' W 000°30'28 9.3
2014-Apr-19 21:32N 50°31' E 000°12'1111.3
2014-Apr-19 20:33N 50°34' E 000°28'1212.1
2014-Apr-19 19:33N 50°40' E 000°44'1312.6
2014-Apr-19 18:33N 50°49' E 000°59'1211.8
2014-Apr-19 17:33N 50°56' E 001°13'1010.4
2014-Apr-19 16:33N 51°03' E 001°26'9 8.9
2014-Apr-19 15:33N 51°09' E 001°37'9 8.5
2014-Apr-19 14:33N 51°15' E 001°46'1010.0
2014-Apr-19 13:33N 51°24' E 001°54'1211.6
2014-Apr-19 12:32N 51°33' E 002°06'67 6.0
2014-Apr-19 01:23N 52°09' E 003°38'0 0.0
2014-Apr-18 06:09N 52°09' E 003°38'0 0.0
2014-Apr-17 23:15N 52°09' E 003°38'0 0.0
2014-Apr-17 16:33N 52°09' E 003°38'0 0.0
2014-Apr-17 15:33N 52°09' E 003°38'0 0.0
2014-Apr-17 14:33N 52°09' E 003°38'0 0.0
2014-Apr-17 11:21N 52°09' E 003°38'0 0.0
2014-Apr-17 10:31N 52°09' E 003°38'0 0.0
2014-Apr-17 09:33N 52°09' E 003°38'0 0.1
2014-Apr-17 08:33N 52°09' E 003°38'0 0.0
2014-Apr-17 07:30N 52°09' E 003°38'0 0.0
2014-Apr-17 06:30N 52°09' E 003°38'0 0.0
2014-Apr-17 05:33N 52°09' E 003°38'0 0.0
2014-Apr-17 04:33N 52°09' E 003°38'0 0.0
2014-Apr-17 03:33N 52°09' E 003°38'0 0.0
2014-Apr-17 02:21N 52°09' E 003°38'0 0.0
2014-Apr-17 01:33N 52°09' E 003°38'0 0.1
2014-Apr-17 00:33N 52°09' E 003°38'0 0.1
2014-Apr-16 23:33N 52°09' E 003°38'0 0.0
2014-Apr-16 22:33N 52°09' E 003°38'0 0.0
2014-Apr-16 21:33N 52°09' E 003°38'0 0.0
2014-Apr-16 20:33N 52°09' E 003°38'0 0.0
2014-Apr-16 19:33N 52°09' E 003°38'9 9.6
2014-Apr-16 18:33N 52°04' E 003°51'10 9.6
2014-Apr-16 17:33N 51°59' E 004°04'1010.1
2014-Apr-16 16:33N 51°54' E 004°18'1 1.1
2014-Apr-16 15:30N 51°53' E 004°19'0 0.0
2014-Apr-16 13:30N 51°53' E 004°19'0 0.0
2014-Apr-16 12:30N 51°53' E 004°19'0 0.0
2014-Apr-16 08:33N 51°53' E 004°19'0 0.0
2014-Apr-16 07:24N 51°53' E 004°19'0 0.0
2014-Apr-16 03:30N 51°53' E 004°19'0 0.0
2014-Apr-16 02:24N 51°53' E 004°19'0 0.0
2014-Apr-16 01:30N 51°53' E 004°19'0 0.0
2014-Apr-16 00:24N 51°53' E 004°19'0 0.0
2014-Apr-15 23:33N 51°53' E 004°19'0 0.0
2014-Apr-15 21:30N 51°53' E 004°19'1 1.2
2014-Apr-15 20:33N 51°54' E 004°18'7 6.8
2014-Apr-15 19:34N 51°58' E 004°09'8 7.7
2014-Apr-15 18:33N 52°00' E 003°57'14 9.4
2014-Apr-15 17:03N 51°57' E 003°34'510.8
2014-Apr-15 16:33N 51°56' E 003°26'1111.1
2014-Apr-15 15:31N 51°52' E 003°08'22 7.5
2014-Apr-15 12:33N 51°44' E 002°35'1111.4
2014-Apr-15 11:33N 51°35' E 002°23'1110.8
2014-Apr-15 10:33N 51°27' E 002°14'1110.6
2014-Apr-15 09:33N 51°17' E 002°07'9 9.2
2014-Apr-15 08:34N 51°11' E 001°56'9 8.5
2014-Apr-15 07:30N 51°06' E 001°44'7 7.6
2014-Apr-15 06:34N 51°01' E 001°36'41 8.2
2014-Apr-15 01:33N 50°29' E 000°54'10 9.8
2014-Apr-15 00:34N 50°27' E 000°39'10 9.9
2014-Apr-14 23:34N 50°24' E 000°24'6112.3
2014-Apr-14 18:34N 50°07' W 001°08'  
2014-Apr-11 09:17N 39°21' W 009°57'2111.0
2014-Apr-11 07:23N 38°60' W 009°57'1210.7
2014-Apr-11 06:18N 38°48' W 009°57'4010.6
2014-Apr-11 02:33N 38°09' W 009°47'1110.9
2014-Apr-11 01:34N 37°59' W 009°44'1110.9
2014-Apr-11 00:33N 37°48' W 009°41'1110.7
2014-Apr-10 23:32N 37°37' W 009°38'1310.5
2014-Apr-10 22:16N 37°24' W 009°34'710.4
2014-Apr-10 21:34N 37°17' W 009°32'1110.5
2014-Apr-10 20:32N 37°07' W 009°29'1010.3
2014-Apr-10 19:33N 36°57' W 009°26'1010.4
2014-Apr-10 18:34N 36°48' W 009°20'1210.6
2014-Apr-10 17:23N 36°40' W 009°08'1010.7
2014-Apr-10 16:25N 36°37' W 008°56'1010.9
2014-Apr-10 15:33N 36°34' W 008°45'1111.3
2014-Apr-10 14:33N 36°31' W 008°31'1111.5
2014-Apr-10 13:33N 36°28' W 008°18'1211.3
2014-Apr-10 12:28N 36°24' W 008°03'1411.2
2014-Apr-10 11:12N 36°20' W 007°46'  

Dump ship's entire track history

sailing weather and tide predictions

M/T Filos — 9HQB8 — position and weather